AMAZONAS 3

Last updated on Fri Dec 19 2025 00:02:50 GMT+0000 (Coordinated Universal Time)

1 39078U 13006A 25352.51788617 -.00000257 00000+0 00000+0 0 9990 2 39078 0.0360 227.5231 0004921 21.6778 323.6328 1.00271595 43102
UTC large
Height (km)
Speed (km/s)
/
Latitude / Longitude
Inclination (degrees)
Orbital Period (minutes)
Azimuth
Elevation
Range (km)
Doppler Factor

Next 0 passes for location: London (51.5072 / 0.1276)

Sorry there are no passes over London.